Printer-friendly version

IAU Minor Planet Center

Minor Planet Center

MPEC 2006-Y60 : COMET C/2006 U6 (SPACEWATCH)

The following Minor Planet Electronic Circular may be linked-to from your own Web pages, but must not otherwise be redistributed electronically.


Read MPEC 2006-Y59 Read MPEC 2006-Y61


M.P.E.C. 2006-Y60                                Issued 2006 Dec. 28, 21:28 UT

     The Minor Planet Electronic Circulars contain information on unusual
         minor planets and routine data on comets.  They are published
   on behalf of Commission 20 of the International Astronomical Union by the
          Minor Planet Center, Smithsonian Astrophysical Observatory,
                          Cambridge, MA 02138, U.S.A.

             Prepared using the Tamkin Foundation Computer Network

                              MPC@CFA.HARVARD.EDU
          URL http://cfa-www.harvard.edu/iau/mpc.html  ISSN 1523-6714

                         COMET C/2006 U6 (SPACEWATCH)

Observations:
    CK06U060  C2006 12 23.73233 23 23 30.31 -03 01 06.8                 EY060246
    CK06U060  C2006 12 23.73294 23 23 30.31 -03 01 07.4                 EY060246
    CK06U060  C2006 12 23.73384 23 23 30.33 -03 01 07.1                 EY060246
    CK06U060  C2006 12 23.73464 23 23 30.35 -03 01 07.5                 EY060246
    CK06U060  C2006 12 23.73560 23 23 30.37 -03 01 07.1                 EY060246
    CK06U060  C2006 12 23.74032 23 23 30.42 -03 01 08.1                 EY060246
    CK06U060  C2006 12 23.74213 23 23 30.45 -03 01 08.6                 EY060246
    CK06U060  C2006 12 24.76006 23 23 43.47 -03 04 15.8                 EY060246
    CK06U060  C2006 12 24.76086 23 23 43.48 -03 04 15.4                 EY060246
    CK06U060  C2006 12 24.76520 23 23 43.56 -03 04 16.7                 EY060246
    CK06U060  C2006 12 24.76600 23 23 43.57 -03 04 17.2                 EY060246
    CK06U060  C2006 12 24.76677 23 23 43.57 -03 04 16.9                 EY060246
    CK06U060  C2006 12 24.76840 23 23 43.59 -03 04 16.9                 EY060246

Observer details:
246 Klet Observatory-KLENOT.  Observers M. Tichy, J. Ticha.  Measurer M. Tichy.
    1.06-m KLENOT Telescope + CCD.

Orbital elements:
    C/2006 U6 (Spacewatch)
T 2008 June 4.7232 TT                                   MPC
q   2.494470             (2000.0)            P               Q
                   Peri.  276.6146      -0.1154904      -0.9933029
                   Node   180.1939      +0.4748482      -0.0581907
e   1.0            Incl.   84.8589      -0.8724569      +0.0998160
From 116 observations 2006 Oct. 19-Dec. 24.

Brian G. Marsden             (C) Copyright 2006 MPC           M.P.E.C. 2006-Y60

Read MPEC 2006-Y59 Read MPEC 2006-Y61


Our Web policy. Index to the CBAT/MPC/ICQ pages.


Valid HTML 4.01!